THOR ABLESTAR DEB, 330

Orbit data source: Space-Track

THOR ABLESTAR DEB, 330 is space debris in LEO originally from a launch on Thu, 29 Jun 1961 UTC launched from the Air Force Eastern Test Range (AFETR). Debris objects in space refer to the collection of defunct objects orbiting the Earth. Examples of debris include non-operational satellites, rocket bodies, and fragments generated from explosions, collisions, or faulty payload assembly.

Loading next visibility...
Identifier
330, 1961-015DG
Orbit
LEO
Country
Flag of USUS
Related business
Manufacturer
Unknown
Mission
Spacecraft
Bus & Motor
Unknown
Mass
Unknown
Launch date (UTC)
1961-06-29 (65 years ago)
Launch vehicle
Unknown
Launch site
Air Force Eastern Test Range (AFETR)
Object type
Payload
Rocket body
Debris
Shape & HBR
Unknown shape, 0.1 m
Radar Cross Section
Medium (>0.1 m² and <1 m²)

Expand to show TLE details & history
Last TLE update: 12 hours ago

TLE from 12 hours ago
0 THOR ABLESTAR DEB
1   330U 61015DG  26199.79942166  .00000268  00000-0  20635-3 0  9995
2   330  66.9771 225.1549 0040996  96.8563 263.7192 14.06822735301155
Epoch: 2026-07-18T19:11Z
TLE epoch observation values (Epoch: 2026-07-18T19:11:10.031Z)
Latitude
-0.00004°
Longitude
0.7561°
Altitude
875.742 km
Speed
7.413 km/s
True Right ascension
15h 00m 37s
True Declination
0° 00' 00"
Sunlit
Object was in daylight at epoch
Visualization orbit readout
Latitude
Unknown
Longitude
Unknown
Altitude
Unknown
Speed
Unknown
Apparent Right ascension
Unknown
Apparent Declination
Unknown
Sunlit
N/A
Visualization observer readout
Local Sidereal Time
19:49:51
Azimuth
Unknown
Elevation
Unknown
Doppler factor
Unknown
Orbital elements
Apogee altitude
898.334 km
Perigee altitude
838.917 km
Semi-major axis
7,246.762 km
Eccentricity
0.0041
Inclination
66.9771°
RAAN
225.1549°
Arg. of periapsis
96.8563°
True anomaly
263.25251°
Mean anomaly
263.7192°
Eccentric anomaly
263.48583°
Mean motion
3.51825 °/min
Orbital period
102.32 mins
BSTAR
0.00020635
Loading maneuver chart data...
Computing Atmospheric mass density...
Loading historical data...
Loading historical data...
Loading historical data...
Loading historical data...
Loading historical data...
Loading historical data...
Loading historical data...

Documentation

Showing up to 5 results
|